| time (UTC) | temp C | wind direction | speed KPH | gust KPH | rain 1hr cm | rain 24hr cm | rain mn cm | humidity % | barometer mb |
| 20260507211549 | 28 | 349 | 3.2 | 9.7 | 0.00 | 0.00 | 0.00 | 50 | 1000.7 |
| 20260507210006 | 29 | 349 | 3.2 | 12.9 | 0.00 | 0.00 | 0.00 | 49 | 1000.8 |
| 20260507204533 | 29 | 334 | 3.2 | 14.5 | 0.00 | 0.00 | 0.00 | 48 | 1000.8 |
| 20260507203054 | 29 | 345 | 3.2 | 9.7 | 0.00 | 0.00 | 0.00 | 48 | 1000.7 |
| 20260507201529 | 29 | 22 | 1.6 | 9.7 | 0.00 | 0.00 | 0.00 | 49 | 1000.4 |
| 20260507200049 | 29 | 350 | 1.6 | 8.0 | 0.00 | 0.00 | 0.00 | 49 | 1000.6 |
| 20260507194621 | 30 | 341 | 3.2 | 9.7 | 0.00 | 0.00 | 0.00 | 47 | 1000.6 |
| 20260507193029 | 30 | 340 | 4.8 | 14.5 | 0.00 | 0.00 | 0.00 | 47 | 1000.9 |
| 20260507191600 | 30 | 355 | 4.8 | 19.3 | 0.00 | 0.00 | 0.00 | 47 | 1001.0 |
| 20260507190010 | 30 | 348 | 3.2 | 12.9 | 0.00 | 0.00 | 0.00 | 47 | 1000.7 |
| 20260507184533 | 30 | 327 | 3.2 | 17.7 | 0.00 | 0.00 | 0.00 | 47 | 1000.8 |
| 20260507183047 | 30 | 319 | 4.8 | 16.1 | 0.00 | 0.00 | 0.00 | 47 | 1000.8 |
| 20260507181501 | 30 | 311 | 3.2 | 16.1 | 0.00 | 0.00 | 0.00 | 46 | 1000.6 |
| 20260507180036 | 31 | 313 | 6.4 | 12.9 | 0.00 | 0.00 | 0.00 | 48 | 1000.5 |
| 20260507174516 | 31 | 288 | 4.8 | 20.9 | 0.00 | 0.00 | 0.00 | 46 | 1000.6 |
| 20260507173035 | 31 | 305 | 14.5 | 30.6 | 0.00 | 0.00 | 0.00 | 45 | 1000.6 |
| 20260507171604 | 31 | 32 | 6.4 | 27.4 | 0.00 | 0.00 | 0.00 | 44 | 1000.6 |
| 20260507170009 | 31 | 360 | 12.9 | 32.2 | 0.00 | 0.00 | 0.00 | 44 | 1000.8 |
| 20260507164548 | 31 | 322 | 16.1 | 37.0 | 0.00 | 0.00 | 0.00 | 45 | 1001.1 |
| 20260507163059 | 31 | 344 | 11.3 | 24.1 | 0.00 | 0.00 | 0.00 | 45 | 1001.4 |
| 20260507161531 | 31 | 290 | 11.3 | 35.4 | 0.00 | 0.00 | 0.00 | 46 | 1001.9 |
| 20260507160033 | 31 | 349 | 17.7 | 35.4 | 0.00 | 0.00 | 0.00 | 46 | 1002.1 |
| 20260507154550 | 31 | 351 | 9.7 | 27.4 | 0.00 | 0.00 | 0.00 | 48 | 1002.3 |
| 20260507153002 | 31 | 302 | 12.9 | 27.4 | 0.00 | 0.00 | 0.00 | 48 | 1002.8 |
| 20260507151534 | 30 | 308 | 11.3 | 29.0 | 0.00 | 0.00 | 0.00 | 51 | 1003.1 |
| 20260507150059 | 30 | 23 | 11.3 | 27.4 | 0.00 | 0.00 | 0.00 | 50 | 1003.7 |
| 20260507144517 | 30 | 360 | 14.5 | 29.0 | 0.00 | 0.00 | 0.00 | 49 | 1003.9 |
| 20260507143025 | 30 | 320 | 14.5 | 27.4 | 0.00 | 0.00 | 0.00 | 50 | 1004.2 |
| 20260507141607 | 30 | 321 | 11.3 | 27.4 | 0.00 | 0.00 | 0.00 | 51 | 1004.8 |
| 20260507140055 | 29 | 0.0 | 0.0 | 0.00 | 0.00 | 0.00 | 54 | 1005.3 | |
| 20260507134517 | 29 | 3.2 | 14.5 | 0.00 | 0.00 | 0.00 | 58 | 1005.7 | |
| 20260507133036 | 27 | 0.0 | 0.0 | 0.00 | 0.00 | 0.00 | 62 | 1006.3 | |
| 20260507131559 | 27 | 0.0 | 0.0 | 0.00 | 0.00 | 0.00 | 63 | 1006.6 | |
| 20260507130030 | 27 | 0.0 | 0.0 | 0.00 | 0.00 | 0.00 | 63 | 1006.8 | |
| 20260507124551 | 27 | 0.0 | 0.0 | 0.00 | 0.00 | 0.00 | 66 | 1006.9 | |
| 20260507123007 | 26 | 0.0 | 0.0 | 0.00 | 0.00 | 0.00 | 68 | 1007.0 | |
| 20260507121541 | 25 | 0.0 | 0.0 | 0.00 | 0.00 | 0.00 | 77 | 1006.8 | |
| 20260507120044 | 24 | 0.0 | 0.0 | 0.00 | 0.00 | 0.00 | 81 | 1007.0 | |
| 20260507114544 | 24 | 144 | 0.0 | 1.6 | 0.00 | 0.00 | 0.00 | 77 | 1007.2 |
| 20260507113048 | 23 | 144 | 0.0 | 3.2 | 0.00 | 0.00 | 0.00 | 79 | 1006.9 |
| 20260507111503 | 23 | 144 | 0.0 | 3.2 | 0.00 | 0.00 | 0.00 | 80 | 1006.9 |
| 20260507110037 | 22 | 144 | 0.0 | 3.2 | 0.00 | 0.00 | 0.00 | 83 | 1006.7 |
| 20260507104559 | 21 | 144 | 0.0 | 3.2 | 0.00 | 0.00 | 0.00 | 83 | 1006.7 |
| 20260507103009 | 21 | 144 | 1.6 | 3.2 | 0.00 | 0.00 | 0.00 | 83 | 1006.9 |
| 20260507101548 | 21 | 103 | 1.6 | 3.2 | 0.00 | 0.00 | 0.00 | 83 | 1006.7 |
| 20260507100109 | 21 | 103 | 0.0 | 3.2 | 0.00 | 0.00 | 0.00 | 82 | 1006.8 |
| 20260507094526 | 21 | 102 | 1.6 | 3.2 | 0.00 | 0.00 | 0.00 | 81 | 1006.9 |
| 20260507093050 | 21 | 91 | 0.0 | 1.6 | 0.00 | 0.00 | 0.00 | 82 | 1006.7 |
| 20260507091527 | 21 | 91 | 1.6 | 1.6 | 0.00 | 0.00 | 0.00 | 81 | 1006.7 |
| 20260507090055 | 21 | 91 | 0.0 | 3.2 | 0.00 | 0.00 | 0.00 | 82 | 1006.7 |
| 20260507084512 | 21 | 90 | 0.0 | 3.2 | 0.00 | 0.00 | 0.00 | 82 | 1006.7 |
| 20260507083022 | 21 | 90 | 0.0 | 3.2 | 0.00 | 0.00 | 0.00 | 83 | 1006.7 |
| 20260507081544 | 21 | 90 | 0.0 | 3.2 | 0.00 | 0.00 | 0.00 | 83 | 1006.9 |
| 20260507080054 | 21 | 90 | 0.0 | 3.2 | 0.00 | 0.00 | 0.00 | 83 | 1007.0 |
| 20260507074526 | 21 | 90 | 0.0 | 3.2 | 0.00 | 0.00 | 0.00 | 82 | 1007.2 |
| 20260507073046 | 21 | 90 | 0.0 | 3.2 | 0.00 | 0.00 | 0.00 | 81 | 1007.3 |
| 20260507071550 | 21 | 90 | 0.0 | 1.6 | 0.00 | 0.00 | 0.00 | 81 | 1007.5 |
| 20260507070013 | 22 | 90 | 0.0 | 0.0 | 0.00 | 0.00 | 0.00 | 80 | 1007.5 |
| 20260507064604 | 22 | 90 | 1.6 | 3.2 | 0.00 | 0.00 | 0.00 | 80 | 1007.6 |
| 20260507063013 | 22 | 90 | 0.0 | 3.2 | 0.00 | 0.00 | 0.00 | 79 | 1007.9 |
| 20260507061538 | 22 | 92 | 0.0 | 4.8 | 0.00 | 0.00 | 0.00 | 80 | 1008.2 |
| 20260507060051 | 22 | 82 | 0.0 | 3.2 | 0.00 | 0.00 | 0.00 | 81 | 1008.4 |
| 20260507054529 | 22 | 82 | 0.0 | 3.2 | 0.00 | 0.00 | 0.00 | 82 | 1008.4 |
| 20260507053044 | 22 | 82 | 0.0 | 3.2 | 0.00 | 0.00 | 0.00 | 81 | 1008.8 |
| 20260507051503 | 22 | 81 | 0.0 | 3.2 | 0.00 | 0.00 | 0.00 | 82 | 1008.9 |
| 20260507050008 | 22 | 73 | 0.0 | 3.2 | 0.00 | 0.00 | 0.00 | 82 | 1009.2 |
| 20260507044542 | 22 | 73 | 0.0 | 3.2 | 0.00 | 0.00 | 0.00 | 82 | 1009.3 |
| 20260507043058 | 22 | 73 | 0.0 | 3.2 | 0.00 | 0.00 | 0.00 | 82 | 1009.6 |
| 20260507041614 | 22 | 73 | 0.0 | 3.2 | 0.00 | 0.00 | 0.00 | 83 | 1009.8 |
| 20260507040013 | 22 | 73 | 0.0 | 3.2 | 0.00 | 0.00 | 0.00 | 81 | 1010.0 |
| 20260507034554 | 23 | 73 | 0.0 | 3.2 | 0.00 | 0.00 | 0.00 | 79 | 1010.2 |
| 20260507033107 | 23 | 73 | 0.0 | 4.8 | 0.00 | 0.00 | 0.00 | 78 | 1010.3 |
| 20260507031534 | 23 | 74 | 3.2 | 8.0 | 0.00 | 0.00 | 0.00 | 78 | 1010.4 |
| 20260507030052 | 23 | 59 | 1.6 | 4.8 | 0.00 | 0.00 | 0.00 | 80 | 1010.6 |
| 20260507024525 | 23 | 80 | 1.6 | 3.2 | 0.00 | 0.00 | 0.00 | 80 | 1010.8 |
| 20260507023036 | 23 | 80 | 0.0 | 3.2 | 0.00 | 0.00 | 0.00 | 80 | 1010.9 |
| 20260507021552 | 23 | 80 | 0.0 | 3.2 | 0.00 | 0.00 | 0.00 | 79 | 1011.0 |
| 20260507020025 | 23 | 111 | 0.0 | 3.2 | 0.00 | 0.00 | 0.00 | 81 | 1011.1 |
| 20260507014546 | 23 | 111 | 0.0 | 3.2 | 0.00 | 0.00 | 0.00 | 82 | 1011.2 |
| 20260507013011 | 23 | 111 | 0.0 | 1.6 | 0.00 | 0.00 | 0.00 | 81 | 1011.3 |
| 20260507011548 | 23 | 111 | 0.0 | 1.6 | 0.00 | 0.00 | 0.00 | 80 | 1011.5 |
| 20260507010056 | 23 | 113 | 0.0 | 3.2 | 0.00 | 0.00 | 0.00 | 81 | 1011.4 |
| 20260507004533 | 23 | 113 | 0.0 | 3.2 | 0.00 | 0.00 | 0.00 | 80 | 1011.4 |
| 20260507003101 | 23 | 113 | 1.6 | 3.2 | 0.00 | 0.00 | 0.00 | 81 | 1011.5 |
| 20260507001530 | 23 | 114 | 0.0 | 3.2 | 0.00 | 0.00 | 0.00 | 81 | 1011.6 |
| 20260507000035 | 24 | 114 | 0.0 | 3.2 | 0.00 | 0.00 | 0.00 | 79 | 1011.7 |
| 20260506234502 | 25 | 114 | 0.0 | 3.2 | 0.00 | 0.00 | 0.00 | 76 | 1011.7 |
| 20260506233015 | 25 | 111 | 0.0 | 3.2 | 0.00 | 0.00 | 0.00 | 76 | 1011.5 |
| 20260506231554 | 25 | 110 | 0.0 | 3.2 | 0.00 | 0.00 | 0.00 | 76 | 1011.5 |
| 20260506230030 | 25 | 105 | 0.0 | 4.8 | 0.00 | 0.00 | 0.00 | 76 | 1011.4 |
| 20260506224547 | 25 | 165 | 0.0 | 1.6 | 0.00 | 0.00 | 0.00 | 75 | 1011.3 |
| 20260506223015 | 25 | 167 | 1.6 | 1.6 | 0.00 | 0.00 | 0.00 | 76 | 1011.3 |
| 20260506221531 | 26 | 167 | 0.0 | 3.2 | 0.00 | 0.00 | 0.00 | 75 | 1011.4 |
| 20260506220101 | 26 | 192 | 1.6 | 3.2 | 0.00 | 0.00 | 0.00 | 74 | 1011.4 |
| 20260506214527 | 26 | 198 | 1.6 | 1.6 | 0.00 | 0.00 | 0.00 | 75 | 1011.3 |
| 20260506213036 | 26 | 198 | 0.0 | 3.2 | 0.00 | 0.00 | 0.00 | 74 | 1011.3 |